Starlink 33836

operational
NORAD ID: 63642 Int'l Des: 2025-083 Owner: SPXS Country: US Constellation: starlink
LEOCIRCULAR

About Starlink 33836

Description loading...

Live Position

Loading 3D Globe...

Upcoming Passes

Altitude History

Altitude vs Time

uPlot chart will show altitude changes over time

Two-Line Element Set

1 63642U 25083J 25349.66688752 .00016484 00000-0 60679-3 0 9994
2 63642 42.9977 119.9878 0000926 275.4318 84.6428 15.27601326 37219
Epoch: Dec 15, 2025 • Age: 27 hours

Current Status

Altitude 483.5 km
Velocity 7.63 km/s
Sub-Earth Point 28.48°N, 140.23°E
Launch Date Apr 25, 2025
Age 0.6 years
Type internet

Technical Details

Classification Payload
Mass 575.00 kg
Dry Mass 530.00 kg
Total Mass 575.00 kg
Length 0.30 m
Diameter 4.10 m
Span 29.00 m
Shape Box + pan
Manufacturer SPXS
Bus Type Starlink V2MO
Phase Status In Orbit
Owner/State SPXS/US

Large Constellations

Loading constellations...